STARLINK-35334

Last updated on Fri Dec 12 2025 00:02:05 GMT+0000 (Coordinated Universal Time)

1 66450U 25259AE 25344.55836080 .00129395 00000+0 21725-2 0 9994 2 66450 43.0030 59.9713 0002029 266.8420 93.2208 15.50613633 5831
UTC large
Height (km)
Speed (km/s)
/
Latitude / Longitude
Inclination (degrees)
Orbital Period (minutes)
Azimuth
Elevation
Range (km)
Doppler Factor

Next 0 passes for location: London (51.5072 / 0.1276)

Sorry there are no passes over London.